Location: Tamazert
(32.6352°N, 5.2072°W)
Time: 15:58:29
(UTC+00:00)

Lacrosse 4 Rocket - Pass Details

Date: 22 May 2022
Orbit: 541 x 611 km, 68.0° (Epoch: 29 June)

Event Time Altitude Azimuth Distance (km) Brightness Sun altitude
Rises 04:22:09 0° 177° (S) 2,832 4.7 -11.1°
Reaches altitude 10° 04:24:40 10° 165° (SSE) 1,924 3.9 -10.7°
Maximum altitude 04:28:17 26° 108° (ESE) 1,162 3.5 -10.0°
Drops below altitude 10° 04:31:51 10° 51° (NE) 1,900 5.7 -9.4°
Sets 04:34:19 0° 39° (NE) 2,789 6.5 -9.0°
